This is the latest recevied weather packets stored in our database for station/object KI6PPU. If no packets are shown the sender has not sent any weather packets the latest 10 day(s).
| Time | Temp. | Humidity | Pressure | Rain* | Wind** | Luminosity | Snow |
|---|---|---|---|---|---|---|---|
| 1788140430 | 84° F | 32% | 760.4 mmHg | 0 in | - | 38 W/m² | - |
| 1788140126 | 84° F | 31% | 760.3 mmHg | 0 in | - | 44 W/m² | - |
| 1788139826 | 85° F | 30% | 760.4 mmHg | 0 in | - | 45 W/m² | - |
| 1788139520 | 85° F | 30% | 760.3 mmHg | 0 in | - | 48 W/m² | - |
| 1788139215 | 85° F | 29% | 760.4 mmHg | 0 in | - | 50 W/m² | - |
| 1788138909 | 86° F | 29% | 760.6 mmHg | 0 in | - | 56 W/m² | - |
| 1788138605 | 86° F | 29% | 760.3 mmHg | 0 in | - | 61 W/m² | - |
| 1788138305 | 86° F | 29% | 760.3 mmHg | 0 in | - | 62 W/m² | - |
| 1788138001 | 87° F | 30% | 760.3 mmHg | 0 in | - | 65 W/m² | - |
| 1788137696 | 87° F | 30% | 760.3 mmHg | 0 in | - | 71 W/m² | - |
| 1788137395 | 87° F | 29% | 760.3 mmHg | 0 in | - | 78 W/m² | - |
| 1788137092 | 87° F | 29% | 760.5 mmHg | 0 in | - | 83 W/m² | - |
| 1788136788 | 87° F | 29% | 760.5 mmHg | 0 in | - | 83 W/m² | - |
| 1788136484 | 87° F | 29% | 760.6 mmHg | 0 in | - | 83 W/m² | - |
| 1788136183 | 88° F | 28% | 760.4 mmHg | 0 in | - | 186 W/m² | - |
| 1788135882 | 89° F | 28% | 760.4 mmHg | 0 in | - | 168 W/m² | - |
| 1788135578 | 89° F | 27% | 760.6 mmHg | 0 in | - | 196 W/m² | - |
| 1788135273 | 90° F | 28% | 760.6 mmHg | 0 in | - | 204 W/m² | - |
| 1788134970 | 89° F | 28% | 760.6 mmHg | 0 in | - | 226 W/m² | - |
| 1788134666 | 89° F | 27% | 760.6 mmHg | 0 in | - | 226 W/m² | - |
| 1788134364 | 90° F | 27% | 760.7 mmHg | 0 in | - | 274 W/m² | - |
| 1788134059 | 90° F | 27% | 760.6 mmHg | 0 in | - | 263 W/m² | - |
| 1788133754 | 90° F | 29% | 760.7 mmHg | 0 in | - | 265 W/m² | - |
| 1788133449 | 91° F | 28% | 760.6 mmHg | 0 in | - | 265 W/m² | - |
| 1788133145 | 91° F | 28% | 760.6 mmHg | 0 in | - | 246 W/m² | - |
* Rain latest hour (hover to see other rain measurements)
** Current wind speed in m/s (hover to see current wind gust speed)